Wind_Speed
2 1 1 1 2 2 3 4 4 5 6 7 8 8 8 8 8 8 8 8 7 7 6 6 6 5 5 5 5 5 4 4 3 3 3 2 3 2 2 2 1 1 0
3 3 2 3 3 4 4 5 6 6 7 8 9 10 10 10 10 10 10 9 8 8 8 7 6 7 7 6 6 6 6 5 5 4 4 3 3 3 3 2 2 1 1
4 4 4 4 5 5 6 7 8 8 9 10 10 11 11 11 11 11 11 10 10 10 9 8 8 8 8 8 7 7 7 7 6 5 5 4 4 4 4 3 3 3 2
6 6 6 6 6 7 8 8 9 10 10 11 12 12 12 12 12 12 12 11 11 11 11 10 10 9 9 9 9 9 8 8 7 7 6 6 5 5 5 5 4 4 4
7 7 8 8 8 9 9 10 11 11 12 12 13 13 13 13 13 13 13 13 12 12 12 12 12 11 11 10 10 10 10 9 9 8 7 7 7 6 7 6 6 5 5
9 9 9 9 10 10 11 11 12 13 14 14 14 14 15 15 15 15 15 14 14 14 14 13 13 13 12 12 11 11 11 11 10 9 9 9 9 8 8 8 7 7 7
10 10 10 11 11 12 13 13 14 15 15 16 16 16 16 16 16 16 16 16 16 16 15 15 14 14 14 13 13 13 12 12 12 11 10 11 11 10 10 10 9 8 8
11 11 12 13 13 14 15 15 16 16 17 17 18 18 18 18 18 17 17 17 17 17 17 16 16 16 15 15 14 14 14 14 13 12 12 12 12 12 12 11 11 10 10
11 12 13 14 15 15 16 16 17 18 18 19 19 19 20 20 19 20 19 18 18 18 17 18 18 17 16 16 16 16 16 15 15 14 13 14 14 14 13 13 13 12 11
12 13 14 14 15 16 15 16 17 18 18 19 19 19 20 20 21 21 20 20 19 19 19 19 19 18 18 17 16 16 17 17 16 16 15 15 15 15 15 15 14 14 13
13 15 15 15 16 17 16 16 17 18 18 18 19 20 20 21 21 21 21 20 20 19 19 19 19 19 19 19 18 19 18 18 18 18 18 17 17 16 16 17 16 16 16
14 15 15 15 16 16 17 17 18 18 18 18 18 19 20 20 21 21 21 20 20 20 20 20 20 20 20 20 20 21 21 20 20 19 19 19 19 19 18 17 17 17 17
14 15 15 16 17 17 18 18 17 18 18 19 19 20 20 21 22 22 22 22 22 22 21 21 21 21 21 21 21 21 21 21 21 21 21 21 20 21 20 19 19 19 19
14 15 16 17 17 17 18 19 18 19 19 20 21 21 22 22 23 24 24 23 23 22 22 21 21 21 21 22 22 21 22 22 22 22 23 23 23 22 22 21 21 21 21
15 16 17 17 18 18 18 18 19 19 20 20 20 21 21 22 23 23 23 23 23 22 22 22 21 22 22 22 23 23 23 23 24 23 23 23 23 23 23 23 23 23 23
16 17 18 18 18 18 19 20 20 21 21 21 21 21 21 22 23 23 24 24 23 23 23 23 22 22 23 23 24 24 24 24 24 24 24 24 23 23 24 24 25 24 24
16 17 18 18 19 19 20 20 21 22 22 22 23 22 23 23 24 24 25 24 23 23 23 24 23 24 24 24 24 24 25 25 25 25 25 24 24 23 24 24 24 24 25
17 18 19 19 19 20 21 21 21 22 22 22 23 23 25 24 24 25 24 24 23 24 24 24 25 24 24 25 25 25 25 26 26 26 25 25 24 24 24 24 24 24 24
18 19 19 20 20 21 22 22 21 22 22 23 24 25 25 24 24 24 24 24 24 24 25 25 26 25 25 25 25 25 26 26 25 26 26 25 25 25 25 25 25 25 25
18 19 19 19 20 21 22 22 22 22 22 23 25 25 25 25 25 24 25 25 25 25 26 26 26 26 26 26 26 26 26 26 26 26 26 26 25 25 25 25 26 26 26
18 19 19 20 21 22 22 22 22 22 22 23 24 25 25 25 25 24 25 25 25 26 27 28 28 28 28 27 27 26 26 26 26 26 26 26 26 26 26 26 26 26 26
17 18 19 20 21 22 21 22 23 23 24 24 24 25 25 25 25 25 24 25 26 27 27 28 28 28 28 28 28 28 27 26 27 27 27 27 26 26 26 26 26 26 27
17 19 19 20 21 21 21 22 24 24 25 26 26 26 26 25 25 25 25 25 26 27 27 28 28 28 28 29 28 28 28 27 27 28 28 27 27 26 27 27 26 26 26
18 19 19 20 20 21 21 22 24 24 25 26 26 26 26 26 26 26 26 26 27 27 27 28 28 29 29 29 29 29 28 28 28 28 28 28 28 28 27 27 27 27 26
19 19 19 19 20 21 22 23 24 25 25 25 26 26 26 26 26 26 27 27 27 27 27 27 28 29 29 29 29 28 28 28 28 28 28 28 28 28 28 27 27 27 26
19 19 20 20 21 22 23 23 24 24 25 26 26 26 26 26 27 27 28 28 28 28 28 28 29 29 29 29 28 28 28 28 28 29 28 28 27 28 28 28 27 27 26
Wind_Direction
321 330 291 285 287 279 272 273 275 278 278 276 278 281 283 284 286 288 290 294 295 297 300 299 300 302 303 305 308 305 297 288 282 275 275 277 280 277 268 254 238 210 121
299 301 294 278 276 275 268 268 274 278 279 278 277 278 279 280 281 285 288 290 289 291 292 292 293 295 296 298 299 299 296 291 284 277 276 278 281 281 277 271 259 253 237
293 293 293 280 276 275 273 270 272 275 278 278 275 274 275 276 278 281 282 284 285 286 286 285 287 289 290 291 292 291 291 291 287 282 279 279 283 282 279 274 266 258 253
282 282 284 279 277 275 275 275 274 273 276 277 273 272 272 273 274 276 276 278 280 282 283 281 282 283 284 285 286 287 287 288 288 286 278 278 280 278 276 272 264 261 256
280 282 281 278 278 276 277 277 275 275 276 277 274 274 273 271 271 272 273 274 275 278 279 280 280 280 279 279 282 284 283 283 282 283 279 274 274 272 267 264 262 257 255
280 284 281 277 276 278 280 278 276 276 277 277 276 274 273 272 270 271 271 272 273 274 276 276 277 277 276 276 277 279 279 278 278 278 278 274 269 265 262 258 258 253 251
281 282 279 278 277 278 280 282 282 280 278 278 277 276 274 273 272 271 271 272 273 274 275 274 274 274 275 275 275 276 277 277 275 273 272 270 266 263 259 258 253 252 251
277 279 278 278 280 281 282 283 284 281 279 277 277 277 274 272 272 271 271 272 272 272 272 271 271 271 273 273 273 274 275 275 273 271 267 266 266 265 261 259 254 252 250
273 275 276 278 280 283 283 283 284 283 281 277 276 278 275 271 269 270 271 271 270 271 271 271 270 269 270 272 273 273 273 273 271 268 265 264 264 265 263 259 257 253 250
272 275 274 278 282 284 285 286 286 286 284 281 277 276 276 274 271 270 272 271 271 272 272 270 269 268 268 270 271 271 272 273 271 267 264 263 263 262 262 261 258 254 253
273 276 277 280 283 283 285 287 287 287 285 283 280 277 275 273 272 272 272 272 272 274 274 273 271 267 267 268 268 269 270 272 272 268 265 261 260 260 260 259 257 256 254
273 273 276 282 285 285 285 287 286 287 286 284 283 280 276 273 272 272 273 274 273 273 273 273 271 268 267 267 268 268 268 270 271 269 268 264 262 261 261 258 256 256 256
276 275 278 283 286 286 286 285 282 283 283 282 280 281 276 273 271 272 272 273 273 272 271 270 270 266 265 266 267 268 268 267 268 267 266 264 261 261 260 257 256 257 256
277 275 277 279 281 283 284 283 280 283 283 282 280 281 280 277 274 272 270 274 274 273 271 269 268 268 267 268 268 268 267 267 268 269 267 264 262 262 259 257 255 256 255
278 278 278 279 283 283 283 283 283 286 286 285 283 283 283 282 279 276 273 274 274 272 271 270 269 268 267 268 266 267 268 268 268 267 266 264 261 260 260 257 257 254 253
279 283 285 286 286 286 285 287 289 290 290 289 287 287 287 286 283 276 273 274 273 271 271 270 268 267 268 268 266 266 268 268 267 266 265 263 262 260 261 260 256 255 254
280 283 285 287 287 287 287 288 289 290 290 289 287 287 288 288 283 280 276 275 274 273 271 271 270 269 268 269 267 267 269 269 267 266 265 264 262 260 259 260 256 255 254
282 286 287 285 286 288 288 289 291 291 289 288 286 286 289 287 283 281 277 277 276 276 273 271 270 269 269 269 269 269 269 268 267 265 265 263 261 260 260 259 256 256 257
283 287 286 286 288 289 289 291 292 292 290 288 288 288 288 286 283 281 278 279 277 275 274 272 270 268 269 269 268 269 269 267 267 266 265 263 261 261 259 258 257 257 259
285 286 284 288 291 291 289 290 291 291 292 291 289 288 287 286 284 282 280 281 278 277 275 273 271 269 269 269 269 269 269 266 266 265 264 263 263 262 258 257 256 258 259
283 285 286 289 292 293 292 289 290 292 293 292 290 287 287 288 286 284 282 281 279 278 276 275 273 270 269 269 269 269 267 266 265 264 264 264 263 261 259 259 257 258 258
284 286 288 287 290 292 293 292 292 294 294 292 292 291 289 288 286 286 284 282 280 280 279 277 275 273 271 270 269 268 266 265 265 263 263 263 263 262 262 262 261 260 260
284 286 288 288 289 290 292 294 294 295 295 293 293 293 292 291 289 289 288 286 283 281 279 278 277 275 272 272 271 269 266 263 262 263 262 262 262 261 261 261 261 262 263
286 285 287 287 289 290 293 295 295 296 295 295 293 292 292 292 292 292 290 287 286 284 281 279 277 274 273 272 271 269 266 263 260 260 261 261 260 260 260 259 261 262 262
288 289 291 290 291 293 293 294 294 294 295 295 294 293 293 291 291 291 290 289 286 284 282 281 281 277 274 272 270 268 266 263 261 260 260 259 259 260 259 259 259 259 260
292 293 295 294 295 295 294 293 293 293 294 294 293 293 292 291 291 291 290 288 286 284 283 281 281 278 275 271 270 267 266 265 263 261 259 258 259 259 258 258 258 258 258
Height
5916 5915 5915 5915 5915 5915 5915 5915 5915 5914 5914 5914 5913 5913 5912 5911 5911 5910 5909 5908 5907 5906 5905 5904 5904 5903 5902 5901 5900 5899 5899 5898 5897 5896 5895 5895 5894 5893 5893 5892 5891 5891 5890
5916 5915 5915 5915 5915 5914 5914 5914 5914 5914 5914 5913 5913 5912 5911 5911 5910 5909 5908 5907 5906 5905 5905 5904 5903 5902 5901 5900 5899 5899 5898 5897 5896 5895 5895 5894 5893 5893 5892 5892 5891 5890 5890
5914 5914 5914 5914 5914 5914 5913 5913 5913 5913 5913 5912 5911 5911 5910 5910 5909 5908 5907 5906 5905 5904 5904 5902 5902 5901 5900 5899 5898 5897 5897 5896 5895 5895 5894 5893 5893 5892 5892 5891 5890 5890 5890
5913 5913 5913 5913 5913 5913 5912 5912 5912 5912 5911 5911 5910 5909 5909 5908 5907 5907 5906 5905 5904 5903 5902 5901 5900 5900 5899 5898 5897 5896 5895 5894 5894 5893 5893 5892 5892 5891 5891 5891 5890 5890 5889
5912 5912 5912 5912 5911 5911 5911 5911 5910 5910 5909 5909 5908 5908 5907 5907 5906 5905 5904 5903 5902 5902 5901 5900 5899 5898 5897 5896 5895 5894 5893 5893 5892 5892 5892 5891 5890 5890 5890 5889 5889 5889 5889
5910 5910 5910 5910 5910 5910 5909 5909 5908 5908 5907 5906 5906 5905 5905 5904 5904 5903 5902 5901 5901 5900 5899 5898 5897 5896 5895 5894 5893 5893 5892 5891 5890 5890 5890 5889 5889 5888 5888 5888 5888 5887 5888
5908 5908 5908 5908 5908 5907 5907 5906 5906 5905 5905 5904 5904 5903 5902 5902 5901 5900 5900 5899 5898 5897 5896 5896 5895 5894 5893 5892 5891 5891 5890 5889 5889 5888 5888 5888 5887 5887 5886 5886 5886 5886 5886
5906 5906 5906 5906 5905 5905 5904 5903 5903 5902 5902 5901 5901 5900 5899 5899 5898 5898 5897 5896 5896 5895 5894 5893 5892 5891 5891 5890 5889 5888 5887 5887 5886 5886 5886 5885 5885 5885 5884 5884 5884 5884 5884
5904 5904 5903 5903 5903 5902 5901 5900 5900 5899 5898 5897 5897 5896 5896 5895 5895 5894 5894 5893 5892 5891 5890 5890 5889 5888 5887 5887 5886 5885 5884 5884 5883 5884 5883 5883 5882 5882 5882 5882 5881 5881 5881
5901 5901 5900 5900 5900 5899 5898 5897 5896 5895 5894 5893 5893 5892 5892 5891 5891 5890 5890 5889 5888 5887 5887 5886 5885 5885 5884 5883 5882 5882 5881 5880 5880 5880 5880 5880 5880 5879 5879 5879 5879 5878 5879
5898 5898 5897 5897 5896 5895 5895 5894 5893 5891 5890 5889 5889 5888 5887 5887 5886 5886 5885 5885 5884 5883 5882 5882 5881 5880 5880 5879 5878 5878 5877 5876 5876 5876 5876 5876 5876 5876 5876 5876 5876 5875 5876
5895 5895 5894 5894 5893 5892 5892 5890 5889 5888 5886 5886 5885 5884 5883 5882 5882 5882 5881 5880 5879 5879 5878 5877 5877 5876 5876 5875 5874 5874 5873 5872 5871 5871 5872 5872 5872 5872 5872 5872 5872 5872 5872
5892 5892 5891 5890 5889 5889 5888 5886 5885 5884 5883 5882 5881 5880 5878 5878 5877 5877 5876 5876 5875 5874 5873 5873 5872 5872 5871 5870 5870 5869 5869 5868 5867 5867 5867 5867 5867 5868 5867 5867 5867 5868 5868
5889 5889 5888 5887 5886 5885 5884 5882 5881 5880 5878 5877 5876 5875 5874 5873 5872 5872 5871 5870 5870 5869 5868 5868 5867 5867 5866 5865 5865 5864 5864 5863 5863 5862 5862 5862 5862 5862 5863 5862 5863 5863 5864
5885 5885 5884 5883 5882 5881 5880 5878 5877 5876 5874 5873 5871 5870 5869 5868 5867 5866 5865 5865 5864 5864 5863 5862 5862 5861 5861 5860 5860 5859 5859 5858 5857 5857 5857 5857 5857 5857 5857 5857 5858 5858 5859
5881 5881 5880 5879 5878 5876 5875 5874 5873 5871 5869 5868 5866 5865 5864 5862 5861 5860 5859 5859 5859 5858 5857 5857 5856 5856 5855 5855 5854 5853 5853 5852 5852 5852 5852 5851 5851 5851 5851 5852 5852 5853 5854
5877 5876 5875 5874 5873 5872 5871 5869 5868 5866 5865 5863 5861 5860 5859 5857 5855 5854 5853 5853 5852 5852 5851 5851 5850 5850 5850 5849 5848 5847 5847 5846 5846 5846 5846 5846 5846 5846 5846 5846 5847 5848 5848
5873 5872 5871 5870 5868 5867 5866 5864 5863 5861 5859 5857 5856 5855 5853 5851 5849 5848 5847 5847 5846 5846 5845 5844 5844 5844 5843 5842 5842 5841 5840 5840 5839 5839 5840 5840 5840 5840 5840 5840 5841 5842 5842
5869 5868 5867 5865 5864 5862 5861 5859 5858 5856 5854 5852 5850 5849 5847 5845 5844 5842 5841 5840 5840 5839 5838 5838 5837 5837 5836 5836 5835 5834 5833 5833 5833 5832 5833 5833 5833 5833 5834 5834 5835 5835 5836
5865 5864 5862 5860 5859 5858 5856 5855 5853 5851 5849 5847 5845 5843 5841 5839 5837 5836 5835 5834 5833 5832 5832 5831 5830 5829 5829 5828 5828 5827 5826 5826 5826 5825 5826 5826 5826 5827 5827 5827 5828 5829 5829
5861 5860 5858 5857 5855 5853 5852 5850 5849 5847 5844 5842 5839 5837 5835 5833 5831 5829 5828 5826 5825 5825 5824 5823 5822 5822 5821 5820 5820 5820 5819 5819 5818 5818 5818 5819 5819 5820 5820 5820 5821 5822 5823
5856 5855 5854 5852 5851 5849 5847 5845 5844 5842 5839 5836 5834 5831 5829 5827 5825 5823 5821 5820 5819 5817 5816 5815 5814 5813 5813 5812 5812 5812 5812 5812 5811 5811 5811 5812 5812 5813 5814 5814 5814 5815 5816
5852 5850 5849 5847 5845 5844 5842 5840 5839 5836 5833 5831 5828 5825 5823 5821 5818 5816 5815 5813 5811 5810 5808 5807 5806 5806 5805 5804 5803 5803 5803 5803 5803 5804 5804 5804 5805 5806 5806 5807 5807 5808 5808
5847 5845 5844 5842 5841 5839 5837 5835 5833 5830 5828 5825 5822 5820 5817 5814 5812 5809 5807 5806 5804 5802 5801 5799 5798 5797 5797 5796 5795 5795 5795 5795 5795 5796 5796 5796 5797 5798 5799 5799 5800 5801 5801
5843 5840 5839 5837 5835 5834 5831 5829 5827 5825 5822 5819 5816 5813 5810 5808 5805 5802 5800 5798 5796 5794 5793 5791 5790 5789 5788 5787 5787 5786 5786 5786 5787 5787 5788 5789 5789 5790 5791 5792 5793 5793 5794
5837 5836 5834 5832 5830 5828 5825 5823 5821 5818 5816 5813 5810 5807 5803 5801 5798 5795 5793 5790 5788 5786 5784 5783 5781 5780 5779 5779 5778 5778 5778 5778 5778 5779 5780 5780 5781 5782 5783 5784 5785 5786 5786